Time,TemperatureF,DewpointF,PressureIn,WindDirection,WindDirectionDegrees,WindSpeedMPH,WindSpeedGustMPH,Humidity,HourlyPrecipIn,Conditions,Clouds,dailyrainin,SoftwareType,DateUTC
2013-02-28 00:02:00,26.0,20.0,30.21,ENE,74,0.0,2.0,79,0.00,,,0.00,weatherlink.com 1.10,2013-02-28 07:02:00,
2013-02-28 00:17:00,26.8,21.0,30.21,NNE,17,0.0,3.0,78,0.00,,,0.00,weatherlink.com 1.10,2013-02-28 07:17:00,
2013-02-28 00:32:00,27.4,22.0,30.21,ENE,61,0.0,1.0,80,0.00,,,0.00,weatherlink.com 1.10,2013-02-28 07:32:00,
2013-02-28 00:47:00,27.1,22.0,30.21,WSW,246,2.0,4.0,81,0.00,,,0.00,weatherlink.com 1.10,2013-02-28 07:47:00,
2013-02-28 01:02:00,27.1,22.0,30.22,ENE,59,3.0,5.0,81,0.00,,,0.00,weatherlink.com 1.10,2013-02-28 08:02:00,
2013-02-28 01:17:00,28.9,23.0,30.22,West,276,0.0,8.0,79,0.00,,,0.00,weatherlink.com 1.10,2013-02-28 08:17:00,
2013-02-28 01:32:00,27.8,22.0,30.22,SE,138,0.0,4.0,80,0.00,,,0.00,weatherlink.com 1.10,2013-02-28 08:32:00,
2013-02-28 01:47:00,27.7,23.0,30.23,SE,139,0.0,0.0,81,0.00,,,0.00,weatherlink.com 1.10,2013-02-28 08:47:00,
2013-02-28 02:02:00,28.0,23.0,30.23,ENE,74,3.0,7.0,82,0.00,,,0.00,weatherlink.com 1.10,2013-02-28 09:02:00,
2013-02-28 02:17:00,28.3,23.0,30.23,West,279,1.0,4.0,81,0.00,,,0.00,weatherlink.com 1.10,2013-02-28 09:17:00,
2013-02-28 02:32:00,28.4,24.0,30.23,SW,231,0.0,3.0,82,0.00,,,0.00,weatherlink.com 1.10,2013-02-28 09:32:00,
2013-02-28 02:47:00,28.6,24.0,30.23,West,277,5.0,5.0,82,0.00,,,0.00,weatherlink.com 1.10,2013-02-28 09:47:00,
2013-02-28 03:02:00,28.7,24.0,30.23,SW,234,0.0,4.0,81,0.00,,,0.00,weatherlink.com 1.10,2013-02-28 10:02:00,
2013-02-28 03:17:00,29.3,24.0,30.23,WNW,295,0.0,3.0,79,0.00,,,0.00,weatherlink.com 1.10,2013-02-28 10:17:00,
2013-02-28 03:32:00,29.5,24.0,30.23,WNW,296,0.0,0.0,79,0.00,,,0.00,weatherlink.com 1.10,2013-02-28 10:32:00,
2013-02-28 03:47:00,29.3,24.0,30.24,WNW,296,2.0,2.0,80,0.00,,,0.00,weatherlink.com 1.10,2013-02-28 10:47:00,
2013-02-28 04:02:00,29.1,24.0,30.24,SSE,165,0.0,4.0,80,0.00,,,0.00,weatherlink.com 1.10,2013-02-28 11:02:00,
2013-02-28 04:17:00,29.4,24.0,30.24,South,178,1.0,4.0,80,0.00,,,0.00,weatherlink.com 1.10,2013-02-28 11:17:00,
2013-02-28 04:32:00,29.3,24.0,30.24,SSE,159,4.0,4.0,79,0.00,,,0.00,weatherlink.com 1.10,2013-02-28 11:32:00,
2013-02-28 04:47:00,29.6,24.0,30.23,South,184,4.0,6.0,78,0.00,,,0.00,weatherlink.com 1.10,2013-02-28 11:47:00,
2013-02-28 05:02:00,29.6,24.0,30.23,SSE,147,5.0,5.0,78,0.00,,,0.00,weatherlink.com 1.10,2013-02-28 12:02:00,
2013-02-28 05:17:00,30.6,24.0,30.23,SSW,205,0.0,6.0,75,0.00,,,0.00,weatherlink.com 1.10,2013-02-28 12:17:00,
2013-02-28 05:32:00,30.5,23.0,30.23,SSW,205,0.0,1.0,75,0.00,,,0.00,weatherlink.com 1.10,2013-02-28 12:32:00,
2013-02-28 05:47:00,30.2,24.0,30.23,NW,316,0.0,1.0,77,0.00,,,0.00,weatherlink.com 1.10,2013-02-28 12:47:00,
2013-02-28 06:02:00,29.9,24.0,30.24,NW,316,0.0,0.0,78,0.00,,,0.00,weatherlink.com 1.10,2013-02-28 13:02:00,
2013-02-28 06:17:00,29.8,24.0,30.24,NW,316,0.0,0.0,79,0.00,,,0.00,weatherlink.com 1.10,2013-02-28 13:17:00,
2013-02-28 06:32:00,29.7,24.0,30.25,NW,316,0.0,0.0,79,0.00,,,0.00,weatherlink.com 1.10,2013-02-28 13:32:00,
2013-02-28 06:47:00,29.8,24.0,30.25,NW,316,0.0,0.0,80,0.00,,,0.00,weatherlink.com 1.10,2013-02-28 13:47:00,
2013-02-28 07:02:00,29.5,25.0,30.25,NNW,332,2.0,3.0,83,0.00,,,0.00,weatherlink.com 1.10,2013-02-28 14:02:00,
2013-02-28 07:17:00,29.1,26.0,30.25,North,355,1.0,3.0,87,0.00,,,0.00,weatherlink.com 1.10,2013-02-28 14:17:00,
2013-02-28 07:32:00,29.0,26.0,30.25,NNW,346,0.0,0.0,88,0.00,,,0.00,weatherlink.com 1.10,2013-02-28 14:32:00,
2013-02-28 07:47:00,29.0,26.0,30.25,NNW,347,0.0,0.0,89,0.00,,,0.00,weatherlink.com 1.10,2013-02-28 14:47:00,
2013-02-28 08:02:00,29.1,27.0,30.25,NNW,347,0.0,0.0,90,0.00,,,0.00,weatherlink.com 1.10,2013-02-28 15:02:00,
2013-02-28 08:18:00,29.4,27.0,30.26,NNW,346,2.0,2.0,90,0.00,,,0.00,weatherlink.com 1.10,2013-02-28 15:18:00,
2013-02-28 08:33:00,29.7,27.0,30.27,NNW,346,0.0,2.0,91,0.00,,,0.00,weatherlink.com 1.10,2013-02-28 15:33:00,
2013-02-28 08:48:00,30.0,28.0,30.27,NNW,346,0.0,0.0,90,0.00,,,0.00,weatherlink.com 1.10,2013-02-28 15:48:00,
2013-02-28 09:03:00,30.3,28.0,30.27,NNW,346,0.0,0.0,90,0.00,,,0.00,weatherlink.com 1.10,2013-02-28 16:03:00,
2013-02-28 09:18:00,30.7,28.0,30.29,NNW,346,0.0,0.0,90,0.00,,,0.00,weatherlink.com 1.10,2013-02-28 16:18:00,
2013-02-28 09:33:00,31.0,29.0,30.30,NNW,346,0.0,0.0,90,0.00,,,0.00,weatherlink.com 1.10,2013-02-28 16:33:00,
2013-02-28 09:48:00,31.3,29.0,30.30,NNW,346,0.0,0.0,90,0.00,,,0.00,weatherlink.com 1.10,2013-02-28 16:48:00,
2013-02-28 10:03:00,31.7,29.0,30.30,NNW,345,2.0,3.0,90,0.00,,,0.00,weatherlink.com 1.10,2013-02-28 17:03:00,
2013-02-28 10:33:00,32.9,30.0,30.31,WNW,292,0.0,0.0,90,0.00,,,0.00,weatherlink.com 1.10,2013-02-28 17:33:00,
2013-02-28 10:48:00,33.6,31.0,30.31,WNW,290,0.0,2.0,89,0.00,,,0.00,weatherlink.com 1.10,2013-02-28 17:48:00,
2013-02-28 11:03:00,34.7,32.0,30.31,SW,221,3.0,4.0,89,0.00,,,0.00,weatherlink.com 1.10,2013-02-28 18:03:00,
2013-02-28 11:18:00,36.2,32.0,30.30,SW,229,0.0,2.0,86,0.00,,,0.00,weatherlink.com 1.10,2013-02-28 18:18:00,
2013-02-28 11:33:00,37.8,33.0,30.29,SSE,158,1.0,2.0,83,0.00,,,0.00,weatherlink.com 1.10,2013-02-28 18:33:00,
2013-02-28 11:48:00,38.8,32.0,30.29,South,190,2.0,7.0,75,0.00,,,0.00,weatherlink.com 1.10,2013-02-28 18:48:00,
2013-02-28 12:03:00,38.9,31.0,30.29,South,175,2.0,8.0,72,0.00,,,0.00,weatherlink.com 1.10,2013-02-28 19:03:00,
2013-02-28 12:18:00,40.4,31.0,30.30,South,184,4.0,7.0,68,0.00,,,0.00,weatherlink.com 1.10,2013-02-28 19:18:00,
2013-02-28 12:33:00,40.3,30.0,30.30,South,171,4.0,7.0,68,0.00,,,0.00,weatherlink.com 1.10,2013-02-28 19:33:00,
2013-02-28 12:48:00,40.4,30.0,30.30,South,185,2.0,7.0,67,0.00,,,0.00,weatherlink.com 1.10,2013-02-28 19:48:00,
2013-02-28 13:03:00,40.9,30.0,30.29,South,184,3.0,7.0,65,0.00,,,0.00,weatherlink.com 1.10,2013-02-28 20:03:00,
2013-02-28 13:18:00,41.4,30.0,30.29,WSW,243,4.0,9.0,65,0.00,,,0.00,weatherlink.com 1.10,2013-02-28 20:18:00,
2013-02-28 13:33:00,41.7,29.0,30.28,SSW,209,3.0,8.0,62,0.00,,,0.00,weatherlink.com 1.10,2013-02-28 20:33:00,
2013-02-28 13:48:00,41.5,30.0,30.28,South,185,5.0,8.0,63,0.00,,,0.00,weatherlink.com 1.10,2013-02-28 20:48:00,
2013-02-28 14:03:00,41.8,30.0,30.27,South,171,3.0,7.0,63,0.00,,,0.00,weatherlink.com 1.10,2013-02-28 21:03:00,
2013-02-28 14:18:00,42.9,31.0,30.27,SSW,196,5.0,7.0,62,0.00,,,0.00,weatherlink.com 1.10,2013-02-28 21:18:00,
2013-02-28 14:34:00,43.6,30.0,30.26,South,187,3.0,7.0,60,0.00,,,0.00,weatherlink.com 1.10,2013-02-28 21:34:00,
2013-02-28 14:49:00,43.6,30.0,30.26,SE,132,0.0,4.0,59,0.00,,,0.00,weatherlink.com 1.10,2013-02-28 21:49:00,
2013-02-28 15:04:00,44.3,30.0,30.25,South,184,2.0,6.0,57,0.00,,,0.00,weatherlink.com 1.10,2013-02-28 22:04:00,
2013-02-28 15:19:00,44.8,30.0,30.25,SSW,200,1.0,5.0,56,0.00,,,0.00,weatherlink.com 1.10,2013-02-28 22:19:00,
2013-02-28 15:34:00,44.4,29.0,30.25,SW,230,0.0,6.0,56,0.00,,,0.00,weatherlink.com 1.10,2013-02-28 22:34:00,
2013-02-28 15:49:00,44.2,29.0,30.25,SSW,211,0.0,6.0,56,0.00,,,0.00,weatherlink.com 1.10,2013-02-28 22:49:00,
2013-02-28 16:04:00,44.3,29.0,30.25,SSW,211,3.0,3.0,56,0.00,,,0.00,weatherlink.com 1.10,2013-02-28 23:04:00,
2013-02-28 16:19:00,44.2,29.0,30.26,SSW,211,0.0,2.0,56,0.00,,,0.00,weatherlink.com 1.10,2013-02-28 23:19:00,
2013-02-28 16:34:00,44.2,29.0,30.27,West,279,0.0,2.0,56,0.00,,,0.00,weatherlink.com 1.10,2013-02-28 23:34:00,
2013-02-28 16:49:00,44.0,30.0,30.27,North,349,0.0,3.0,58,0.00,,,0.00,weatherlink.com 1.10,2013-02-28 23:49:00,
2013-02-28 17:04:00,44.0,29.0,30.27,North,349,0.0,1.0,57,0.00,,,0.00,weatherlink.com 1.10,2013-03-01 00:04:00,
2013-02-28 17:19:00,43.8,30.0,30.27,NW,325,5.0,5.0,58,0.00,,,0.00,weatherlink.com 1.10,2013-03-01 00:19:00,
2013-02-28 17:34:00,43.2,31.0,30.28,NW,315,5.0,7.0,62,0.00,,,0.00,weatherlink.com 1.10,2013-03-01 00:34:00,
2013-02-28 17:49:00,42.5,31.0,30.28,North,11,5.0,5.0,65,0.00,,,0.00,weatherlink.com 1.10,2013-03-01 00:49:00,
2013-02-28 18:04:00,42.0,31.0,30.28,North,351,3.0,4.0,66,0.00,,,0.00,weatherlink.com 1.10,2013-03-01 01:04:00,
2013-02-28 18:19:00,41.7,31.0,30.28,North,355,0.0,3.0,67,0.00,,,0.00,weatherlink.com 1.10,2013-03-01 01:19:00,
2013-02-28 18:34:00,41.5,32.0,30.28,North,355,0.0,1.0,68,0.00,,,0.00,weatherlink.com 1.10,2013-03-01 01:34:00,
2013-02-28 18:49:00,41.0,32.0,30.28,North,355,3.0,4.0,70,0.00,,,0.00,weatherlink.com 1.10,2013-03-01 01:49:00,
2013-02-28 19:04:00,40.0,33.0,30.27,North,355,2.0,5.0,75,0.00,,,0.00,weatherlink.com 1.10,2013-03-01 02:04:00,
2013-02-28 19:19:00,39.3,32.0,30.27,NE,42,3.0,4.0,76,0.00,,,0.00,weatherlink.com 1.10,2013-03-01 02:19:00,
2013-02-28 19:34:00,39.3,32.0,30.28,North,5,2.0,4.0,76,0.00,,,0.00,weatherlink.com 1.10,2013-03-01 02:34:00,
2013-02-28 19:49:00,39.6,33.0,30.29,NNW,339,3.0,4.0,77,0.00,,,0.00,weatherlink.com 1.10,2013-03-01 02:49:00,
2013-02-28 20:04:00,39.6,33.0,30.29,NNW,333,0.0,3.0,78,0.00,,,0.00,weatherlink.com 1.10,2013-03-01 03:04:00,
2013-02-28 20:19:00,38.9,33.0,30.28,NNW,333,0.0,3.0,79,0.00,,,0.00,weatherlink.com 1.10,2013-03-01 03:19:00,
2013-02-28 20:34:00,38.8,33.0,30.28,NNW,334,0.0,3.0,81,0.00,,,0.00,weatherlink.com 1.10,2013-03-01 03:34:00,
2013-02-28 20:49:00,38.9,34.0,30.28,NNW,334,1.0,1.0,81,0.00,,,0.00,weatherlink.com 1.10,2013-03-01 03:49:00,
2013-02-28 21:04:00,38.8,34.0,30.28,NNW,334,0.0,0.0,82,0.00,,,0.00,weatherlink.com 1.10,2013-03-01 04:04:00,
2013-02-28 21:19:00,38.6,34.0,30.29,NNW,334,0.0,0.0,83,0.00,,,0.00,weatherlink.com 1.10,2013-03-01 04:19:00,
2013-02-28 21:34:00,38.5,34.0,30.29,NNW,334,2.0,4.0,83,0.00,,,0.00,weatherlink.com 1.10,2013-03-01 04:34:00,
2013-02-28 21:49:00,38.3,34.0,30.29,NNW,333,0.0,2.0,83,0.00,,,0.00,weatherlink.com 1.10,2013-03-01 04:49:00,
2013-02-28 22:04:00,38.0,34.0,30.28,NNW,333,0.0,3.0,84,0.00,,,0.00,weatherlink.com 1.10,2013-03-01 05:04:00,
2013-02-28 22:19:00,37.5,33.0,30.27,NNW,333,0.0,1.0,85,0.00,,,0.00,weatherlink.com 1.10,2013-03-01 05:19:00,
2013-02-28 22:34:00,37.1,33.0,30.28,NNW,333,0.0,0.0,85,0.00,,,0.00,weatherlink.com 1.10,2013-03-01 05:34:00,
2013-02-28 22:49:00,37.2,33.0,30.29,NNW,333,0.0,2.0,86,0.00,,,0.00,weatherlink.com 1.10,2013-03-01 05:49:00,
2013-02-28 23:04:00,37.1,33.0,30.29,NNW,333,0.0,2.0,86,0.00,,,0.00,weatherlink.com 1.10,2013-03-01 06:04:00,
2013-02-28 23:19:00,36.8,33.0,30.30,NNW,333,0.0,0.0,86,0.00,,,0.00,weatherlink.com 1.10,2013-03-01 06:19:00,
2013-02-28 23:34:00,36.2,33.0,30.30,NNW,333,0.0,0.0,87,0.00,,,0.00,weatherlink.com 1.10,2013-03-01 06:34:00,
2013-02-28 23:49:00,36.3,33.0,30.30,NNW,333,0.0,0.0,88,0.00,,,0.00,weatherlink.com 1.10,2013-03-01 06:49:00,